[[{"header":{"parameterUnit":"m.s-1","parameterCategory":1,"la1":30.2991,"la2":30.254,"lo1":-89.0895,"lo2":-89.0444,"dy":0.0017,"dx":0.0017,"nx":28,"ny":28,"refTime":"2025-07-29T09:00:00:Z","depth":0,"parameterNumber":2,"parameterNumberName":"U-component_of_WINDS"},"data":[0,0,0,0,0,0,0,0,0,0,0,0,0,0,0,0,0,0,0,0,0,0,0,0,0,0,0,0,0,0,0,0,0,0,0,0,0,0,0,0,0,0,0,0,0,0,0,0,0,0,0,0,0,0,0,0,0,0,1.3228,1.3228,0,1.3246,1.3246,1.3246,1.3248,1.3248,1.3248,1.3247,1.3265,1.3266,1.3266,0,0,0,0,0,0,0,0,0,0,0,0,0,1.3196,1.3197,1.3228,1.3228,1.3228,1.3246,1.3246,1.3246,1.3248,1.3248,1.3248,1.3247,1.3265,1.3266,1.3267,0,0,0,0,0,0,0,0,0,0,0,0,0,1.3212,1.3197,1.3228,1.3231,1.3232,1.3246,1.3246,1.3246,1.3248,1.3248,1.3248,1.3247,1.3265,1.3266,1.3267,1.3278,0,0,1.327,1.327,0,0,0,0,0,0,0,0,1.3211,1.3213,1.3231,1.3231,1.3232,1.3244,1.3241,1.3257,1.3248,1.3242,1.3247,1.3247,1.3258,1.326,1.3264,1.3279,1.328,1.327,1.327,1.3271,1.3271,0,0,0,0,0,0,0,1.321,1.3212,1.3235,1.3231,1.3232,1.3232,1.3234,1.3244,1.3251,1.3242,1.3243,1.3245,1.3259,1.3263,1.3264,1.328,1.327,1.327,1.3271,1.3271,1.3307,1.3307,0,0,0,0,0,0,1.3208,1.3211,1.3234,1.3235,1.322,1.3233,1.3235,1.3241,1.3251,1.3253,1.3245,1.3245,1.3261,1.3263,1.3265,1.328,1.3271,1.3272,1.3272,1.3307,1.3307,1.3307,0,0,0,0,0,0,1.3207,1.321,1.3234,1.3223,1.3226,1.3234,1.324,1.3241,1.3245,1.3253,1.3255,1.3248,1.3261,1.3264,1.3275,1.328,1.3272,1.3273,1.3306,1.3307,1.3307,1.3309,0,0,0,0,0,0,1.3206,1.321,1.3214,1.3223,1.3227,1.3243,1.324,1.3242,1.3247,1.3247,1.3256,1.3258,1.3261,1.3274,1.3276,1.3281,1.3274,1.3306,1.3306,1.3307,1.3308,1.3309,1.331,0,0,0,0,0,1.3205,1.3213,1.3214,1.3217,1.3232,1.3243,1.3245,1.3249,1.3247,1.3252,1.3257,1.3257,1.328,1.3275,1.3278,1.3283,1.3305,1.3306,1.3307,1.3308,1.3309,1.331,0,0,0,0,0,0,1.3203,1.3214,1.3215,1.3226,1.3234,1.3244,1.3249,1.325,1.3259,1.3258,1.3263,1.3265,1.3277,1.3281,1.3276,1.3296,1.3292,1.3294,1.3292,1.3293,1.3294,1.3293,1.3274,0,0,0,0,0,1.3204,1.3212,1.3221,1.323,1.3234,1.3241,1.3246,1.3249,1.3257,1.326,1.3266,1.3274,1.3283,1.3289,1.3297,1.331,1.3312,1.3315,1.3316,1.3317,1.3318,1.3326,1.3328,1.331,1.331,1.331,0,0,1.3205,1.3212,1.3217,1.323,1.3236,1.3245,1.3244,1.3252,1.3259,1.3261,1.3273,1.3278,1.3287,1.33,1.3305,1.3304,1.3324,1.3318,1.3319,1.3319,1.3327,1.3329,1.333,1.3311,1.3311,1.3311,0,0,1.3212,1.3218,1.3227,1.3234,1.3244,1.3249,1.3251,1.3261,1.3265,1.3277,1.3279,1.3287,1.3302,1.3309,1.3314,1.3327,1.3328,1.333,1.3335,1.3343,1.3344,1.3345,1.335,1.3352,1.3331,1.3331,1.3331,0,1.3212,1.3225,1.3231,1.324,1.3246,1.325,1.3259,1.3266,1.3278,1.3282,1.328,1.3301,1.3307,1.3322,1.3325,1.3329,1.3332,1.3328,1.3343,1.3345,1.3346,1.3351,1.3353,1.3331,1.3331,1.3331,1.3331,0,1.3226,1.3235,1.3241,1.3254,1.326,1.327,1.3277,1.3284,1.3287,1.3292,1.3305,1.3313,1.3324,1.3328,1.3331,1.3344,1.3343,1.3342,1.3339,1.3348,1.3352,1.3354,1.3332,1.3331,1.3331,1.3331,0,0,1.3229,1.3247,1.3249,1.3255,1.3268,1.3275,1.3285,1.3297,1.3303,1.3312,1.3321,1.3335,1.3335,1.3341,1.3345,1.3352,1.3362,1.3351,1.3351,1.3353,1.3378,1.3378,1.338,1.3364,1.3364,1.3364,1.3378,0,1.3238,1.3256,1.3263,1.3278,1.3287,1.3292,1.3301,1.331,1.3316,1.3325,1.3332,1.3342,1.3341,1.3345,1.3352,1.336,1.3368,1.3359,1.3372,1.3373,1.3369,1.3383,1.3382,1.3394,1.3379,1.338,1.338,0,1.325,1.326,1.3276,1.3289,1.3293,1.3301,1.3313,1.3322,1.3333,1.3337,1.3345,1.3349,1.3361,1.3357,1.3374,1.3368,1.3374,1.3379,1.338,1.338,1.3376,1.3383,1.3398,1.34,1.3383,1.3383,1.3382,0,1.3251,1.3269,1.3281,1.3287,1.3302,1.3308,1.3314,1.3325,1.3332,1.3343,1.3348,1.336,1.3366,1.3376,1.3383,1.338,1.3399,1.3396,1.3403,1.3403,1.3406,1.3405,1.3421,1.3411,1.3411,1.3411,1.3411,0,1.326,1.3269,1.3282,1.329,1.3301,1.331,1.3321,1.3328,1.3338,1.3347,1.3353,1.3361,1.3371,1.3381,1.3387,1.3401,1.3404,1.3407,1.3409,1.3407,1.3406,1.341,1.3409,1.3411,1.3411,1.3411,1.3411,0,1.3262,1.3271,1.3285,1.33,1.3304,1.3311,1.3324,1.3332,1.3339,1.3351,1.3354,1.3366,1.3378,1.3387,1.3403,1.3407,1.3422,1.3423,1.3418,1.3419,1.3425,1.3424,1.3443,1.3446,1.3434,1.3434,1.3434,0,1.3267,1.3275,1.329,1.3297,1.3304,1.3315,1.3323,1.3332,1.334,1.3354,1.3361,1.3374,1.3385,1.3405,1.3415,1.3428,1.3429,1.3435,1.3431,1.3429,1.3429,1.3428,1.343,1.3435,1.3435,1.3435,1.3436,0,1.3274,1.3279,1.3289,1.3303,1.3312,1.3322,1.3333,1.3339,1.335,1.3358,1.3372,1.338,1.3398,1.3411,1.3425,1.3433,1.3436,1.3437,1.3439,1.3437,1.3433,1.3435,1.3419,1.3436,1.3436,1.3436,1.3436,1.3436,1.3278,1.3285,1.3298,1.331,1.332,1.333,1.3339,1.3348,1.3359,1.3374,1.3379,1.3393,1.3406,1.3425,1.3433,1.3445,1.3444,1.3447,1.3448,1.3449,1.3449,1.3432,1.3447,1.3447,1.3447,1.3447,1.3447,0,1.3285,1.3294,1.3305,1.3321,1.3331,1.3335,1.3347,1.3355,1.3368,1.3379,1.3391,1.3407,1.342,1.3432,1.3446,1.3453,1.3456,1.3457,1.3456,1.3458,1.3448,1.3445,1.3455,1.3455,1.3455,1.3455,1.3455,1.3455,1.329,1.3303,1.331,1.3329,1.3338,1.3352,1.3359,1.3369,1.3378,1.3396,1.3408,1.3416,1.3428,1.3443,1.3456,1.3459,1.3464,1.3465,1.3469,1.3459,1.3458,1.3457,1.3454,1.3466,1.3466,1.3477,1.3478,1.3478]},{"header":{"parameterUnit":"m.s-1","parameterCategory":1,"la1":30.2991,"la2":30.254,"lo1":-89.0895,"lo2":-89.0444,"dy":0.0017,"dx":0.0017,"nx":28,"ny":28,"refTime":"2025-07-29T09:00:00:Z","depth":0,"parameterNumber":3,"parameterNumberName":"V-component_of_WINDS"},"data":[0,0,0,0,0,0,0,0,0,0,0,0,0,0,0,0,0,0,0,0,0,0,0,0,0,0,0,0,0,0,0,0,0,0,0,0,0,0,0,0,0,0,0,0,0,0,0,0,0,0,0,0,0,0,0,0,0,0,-1.7566,-1.7565,0,-1.7478,-1.7477,-1.7476,-1.7415,-1.7414,-1.7414,-1.7413,-1.7316,-1.7314,-1.7312,0,0,0,0,0,0,0,0,0,0,0,0,0,-1.7674,-1.7672,-1.7566,-1.7565,-1.7564,-1.7479,-1.7477,-1.7476,-1.7415,-1.7414,-1.7414,-1.7413,-1.7317,-1.7314,-1.7312,0,0,0,0,0,0,0,0,0,0,0,0,0,-1.7611,-1.7672,-1.7566,-1.7523,-1.7519,-1.7479,-1.7477,-1.7476,-1.7415,-1.7414,-1.7414,-1.7413,-1.7318,-1.7315,-1.7311,-1.7305,0,0,-1.7302,-1.73,0,0,0,0,0,0,0,0,-1.7614,-1.7607,-1.7531,-1.7526,-1.7521,-1.7457,-1.748,-1.7418,-1.7415,-1.7454,-1.7413,-1.7413,-1.7363,-1.7356,-1.7341,-1.7301,-1.7297,-1.7301,-1.7299,-1.7298,-1.7297,0,0,0,0,0,0,0,-1.7619,-1.761,-1.7531,-1.753,-1.7524,-1.7506,-1.7496,-1.7468,-1.7413,-1.7451,-1.7446,-1.7437,-1.736,-1.7344,-1.7338,-1.7295,-1.7301,-1.7299,-1.7297,-1.7295,-1.7244,-1.7244,0,0,0,0,0,0,-1.7631,-1.7614,-1.7534,-1.7529,-1.7567,-1.7505,-1.7494,-1.7478,-1.7414,-1.7403,-1.7438,-1.7434,-1.735,-1.7342,-1.7335,-1.7322,-1.7298,-1.7295,-1.7293,-1.7243,-1.7244,-1.7245,0,0,0,0,0,0,-1.7633,-1.7624,-1.7538,-1.757,-1.7558,-1.7504,-1.7486,-1.7477,-1.7461,-1.7404,-1.7393,-1.7432,-1.7349,-1.7339,-1.7313,-1.7318,-1.7293,-1.7291,-1.7243,-1.7243,-1.7244,-1.7298,0,0,0,0,0,0,-1.7637,-1.7626,-1.7624,-1.7571,-1.7556,-1.752,-1.7487,-1.7476,-1.7456,-1.7451,-1.7395,-1.7385,-1.7348,-1.7318,-1.731,-1.7313,-1.7288,-1.7242,-1.7243,-1.7244,-1.7295,-1.73,-1.7305,0,0,0,0,0,-1.7641,-1.7641,-1.7625,-1.7615,-1.7554,-1.7521,-1.7512,-1.7471,-1.7457,-1.7454,-1.7417,-1.7387,-1.7319,-1.7316,-1.7306,-1.7308,-1.7241,-1.7243,-1.7244,-1.7293,-1.7299,-1.7305,0,0,0,0,0,0,-1.7694,-1.7634,-1.7614,-1.7598,-1.7565,-1.751,-1.7505,-1.7479,-1.7448,-1.7444,-1.7392,-1.738,-1.7359,-1.7331,-1.7329,-1.7298,-1.7276,-1.7276,-1.7317,-1.7323,-1.7327,-1.7334,-1.7285,0,0,0,0,0,-1.7705,-1.7685,-1.7632,-1.7623,-1.7608,-1.756,-1.7543,-1.7515,-1.7478,-1.7463,-1.7424,-1.7387,-1.7357,-1.7339,-1.7308,-1.7292,-1.7277,-1.7288,-1.7293,-1.7297,-1.7296,-1.7284,-1.7287,-1.7249,-1.7249,-1.7249,0,0,-1.7725,-1.7689,-1.768,-1.7633,-1.7604,-1.7582,-1.7548,-1.7527,-1.7509,-1.7459,-1.7432,-1.7403,-1.7358,-1.7337,-1.7325,-1.7312,-1.7304,-1.7298,-1.7302,-1.7299,-1.7285,-1.7289,-1.7292,-1.725,-1.725,-1.7249,0,0,-1.7751,-1.7723,-1.7712,-1.7684,-1.7642,-1.761,-1.7608,-1.7557,-1.7536,-1.751,-1.7471,-1.7448,-1.7399,-1.7368,-1.7346,-1.7361,-1.7331,-1.7352,-1.7376,-1.7364,-1.7367,-1.737,-1.7374,-1.7376,-1.7352,-1.7352,-1.7352,0,-1.778,-1.7749,-1.7709,-1.769,-1.7669,-1.7626,-1.7613,-1.7587,-1.7536,-1.7522,-1.7509,-1.7446,-1.7412,-1.7383,-1.7387,-1.7371,-1.7364,-1.7358,-1.7371,-1.7373,-1.7374,-1.7377,-1.7379,-1.7355,-1.7355,-1.7355,-1.7354,0,-1.7787,-1.7765,-1.7761,-1.7716,-1.7695,-1.7679,-1.7634,-1.7618,-1.7591,-1.756,-1.7533,-1.7492,-1.7452,-1.7443,-1.7416,-1.7409,-1.7402,-1.7381,-1.7358,-1.7381,-1.7383,-1.7384,-1.7359,-1.7358,-1.7357,-1.7357,0,0,-1.7842,-1.7776,-1.7775,-1.7754,-1.7704,-1.7686,-1.7667,-1.7631,-1.7617,-1.7583,-1.7565,-1.7524,-1.7504,-1.7479,-1.7448,-1.7439,-1.7451,-1.7418,-1.7416,-1.7424,-1.7439,-1.7454,-1.7457,-1.7432,-1.7432,-1.7433,-1.7442,0,-1.7859,-1.7826,-1.779,-1.7768,-1.7747,-1.7705,-1.7689,-1.7655,-1.7626,-1.7602,-1.7568,-1.754,-1.7517,-1.7501,-1.749,-1.7453,-1.7453,-1.7451,-1.7412,-1.7411,-1.7423,-1.7458,-1.7474,-1.7485,-1.7443,-1.7443,-1.7443,0,-1.7874,-1.7845,-1.7823,-1.7775,-1.7765,-1.7751,-1.7714,-1.7693,-1.7653,-1.7632,-1.7605,-1.7573,-1.7549,-1.753,-1.7495,-1.7494,-1.7476,-1.7455,-1.7454,-1.7448,-1.7427,-1.745,-1.7488,-1.7489,-1.7444,-1.7444,-1.7444,0,-1.7915,-1.787,-1.7851,-1.7834,-1.7779,-1.777,-1.7746,-1.7706,-1.7686,-1.7653,-1.764,-1.7604,-1.7584,-1.7555,-1.7513,-1.7504,-1.7482,-1.746,-1.7461,-1.7462,-1.7457,-1.7458,-1.7491,-1.7448,-1.7448,-1.7448,-1.7448,0,-1.7937,-1.7924,-1.7869,-1.7856,-1.784,-1.7798,-1.7782,-1.7754,-1.772,-1.7699,-1.7661,-1.7642,-1.7588,-1.7563,-1.7529,-1.7504,-1.7496,-1.7476,-1.7467,-1.7479,-1.7481,-1.7465,-1.7462,-1.7449,-1.7449,-1.7449,-1.7449,0,-1.7979,-1.7942,-1.7918,-1.7868,-1.7855,-1.7845,-1.7802,-1.7787,-1.7756,-1.7731,-1.7722,-1.7673,-1.764,-1.7596,-1.755,-1.7527,-1.7506,-1.7492,-1.752,-1.7514,-1.7518,-1.7518,-1.754,-1.754,-1.75,-1.7501,-1.7501,0,-1.7995,-1.7984,-1.7934,-1.792,-1.7898,-1.7874,-1.7854,-1.7812,-1.7792,-1.7747,-1.7737,-1.7703,-1.7673,-1.7622,-1.758,-1.7544,-1.7528,-1.7539,-1.7522,-1.7534,-1.7526,-1.7527,-1.7525,-1.7542,-1.7543,-1.7544,-1.7544,0,-1.8026,-1.8008,-1.7983,-1.7951,-1.7929,-1.7902,-1.7872,-1.7861,-1.7811,-1.7791,-1.7759,-1.7736,-1.769,-1.7655,-1.7613,-1.7585,-1.7555,-1.755,-1.7548,-1.7559,-1.7575,-1.7565,-1.7529,-1.7549,-1.7549,-1.7548,-1.7548,-1.7548,-1.8054,-1.8042,-1.8006,-1.7979,-1.7952,-1.7926,-1.791,-1.7878,-1.7851,-1.7812,-1.7788,-1.7756,-1.7716,-1.7658,-1.7631,-1.7604,-1.7592,-1.759,-1.7589,-1.7589,-1.7592,-1.7581,-1.7596,-1.7596,-1.7596,-1.7596,-1.7596,0,-1.8081,-1.8057,-1.8032,-1.7993,-1.7971,-1.7949,-1.7914,-1.7897,-1.7871,-1.7837,-1.7809,-1.7771,-1.7738,-1.7694,-1.7656,-1.7643,-1.7628,-1.7634,-1.7634,-1.7627,-1.7605,-1.761,-1.7647,-1.7647,-1.7647,-1.7647,-1.7647,-1.7647,-1.8093,-1.8073,-1.8051,-1.8017,-1.799,-1.7962,-1.7944,-1.7918,-1.7891,-1.7852,-1.7825,-1.7798,-1.7759,-1.7719,-1.7686,-1.7673,-1.766,-1.767,-1.7654,-1.7634,-1.7629,-1.7625,-1.7629,-1.7668,-1.7668,-1.7677,-1.7678,-1.7678]}]]